Location: Berlise
(49.6641°N, 4.1077°E)
Time: 02:10:42
(UTC+00:00)

Cosmos 1980 - Pass Details

Date: 27 January 2021
Orbit: 841 x 846 km, 71.0° (Epoch: 28 February)

Event Time Altitude Azimuth Distance (km) Brightness Sun altitude
Exits shadow 04:17:20 72° 109° (ESE) 888 3.8 -29.9°
Drops below altitude 10° 04:22:54 10° 32° (NNE) 2,468 6.5 -29.0°
Sets 04:25:22 0° 31° (NNE) 3,407 7.3 -28.6°
